Showing default

IRIDIUM 167, 43931

Orbit data source: Space-Track

IRIDIUM 167, 43931 is a payload satellite owned by Iridium (US) in LEO that was launched on Fri, 11 Jan 2019 UTC via an FALCON 9 launch vehicle from the Air Force Western Test Range (AFWTR). Payloads include a variety of satellites, spacecraft, and rockets equipped with specific instruments for various scientific and technological missions. These include communications satellites like Starlink; space stations such as the ISS; scientific satellites like the Hubble; Earth observation satellites from companies like Planet Labs, Umbra, and HawkEye 360; GPS; miniature CubeSats for education and research; and military/defense satellites.

Loading next visibility...
IRIDIUM 167 details
Identifier
43931, 2019-002K
Orbit
LEO
Last TLE update10 hours ago
Origin
Flag of USIridium (US)
ManufacturerNGIS SSG Gilbert
MissionOperational Commercial Communications
Bus & MotorELITEBUS, Unknown motor
Mass860 kg wet, 700 kg dry
Launch date (UTC)
2019-01-11 (6 years ago)
Launch vehicle
FALCON 9
Launch site
Air Force Western Test Range (AFWTR)
Object type
Payload
Rocket body
Debris
Shape & HBRTrap Box + 2 Pan, 9.4 m
Radar Cross Section14.423 m², Large (>1 m²)

Expand to show TLE details & history

TLE from 10 hours ago
0 IRIDIUM 167
1 43931U 19002K   24361.16993993  .00000433  00000-0  14758-3 0  9995
2 43931  86.3977 218.3953 0001666  95.9384 264.2002 14.34219977311840
Epoch: 2024-12-26T04:04Z
Definitive object data (Epoch: 2024-12-26T04:04:42.809Z)
Latitude-0.00002°
Longitude62.06374°
Altitude780.831 km
Speed7.463 km/s
True Right ascension14h 33m 34s
True Declination0° 00' 00"
Sunlit
Object was in daylight at TLE epoch
Visualization TLE readout
Latitude84.64314°
Longitude103.78082°
Altitude790.233 km
Speed7.466 km/s
Apparent Right ascension01h 26m 29s
Apparent Declination33° 59' 53"
Sunlit
Object is in daylight
Visualization observer readout
Local Sidereal Time13:53:19
Azimuth5.777° NNE
Elevation-15.826°
Doppler factor1
Orbital elements
Apogee altitude775.816 km
Perigee altitude773.433 km
Semi-major axis7,152.761 km
Eccentricity0.0001666
Inclination86.3977°
RAAN218.3953°
Arg. of periapsis95.9384°
True anomaly264.18121°
Mean anomaly264.2002°
Eccentric anomaly264.1907°
Mean motion3.58784 °/min
BSTAR0.00014758
Orbital period100.34 mins
Loading maneuver chart data...
Loading historical data...
Loading historical data...
Loading historical data...
Loading historical data...
Loading historical data...
Loading historical data...
Loading historical data...

IRIDIUM 167 Visibility forecast

Observer location: undefined°, undefined

Span
Click to sort rows by Start time (UTC) header in descending order
Start Az.
Max El. time (UTC)
Max El. Az.
Max El.
End time (UTC)
End Az.
9 mins2024-12-26 15:54:28.479Z208.401° SW2024-12-26 15:59:28.479Z283.626° WNW32.594°2024-12-26 16:03:28.479Z343.898° N
8 mins2024-12-27 02:26:28.479Z16.88° NNE2024-12-27 02:29:28.479Z74.657° E37.301°2024-12-27 02:34:28.479Z158.739° S
4 mins2024-12-27 04:08:28.479Z301.167° NW2024-12-27 04:09:28.479Z287.513° WNW16.656°2024-12-27 04:12:28.479Z247.802° W
|